Probability
0 0 0 0 0 0 0 0 0 0 0 0 0 0 0 0 0 0 0 0 0 0 0 0 0 0 0 0 0 0 0 0 0 0 0 0 0 0 0 0 0 0 0
0 0 0 0 0 0 0 0 0 0 0 0 0 0 0 0 0 0 0 0 0 0 0 0 0 0 0 0 0 0 0 0 0 0 0 0 0 0 0 0 0 0 0
0 0 0 0 0 0 0 0 0 0 0 0 0 0 0 0 0 0 0 0 0 0 0 0 0 0 0 0 0 0 0 0 0 0 0 0 0 0 0 0 0 0 0
0 0 0 0 0 0 0 0 0 0 0 0 0 0 0 0 0 0 0 0 0 0 0 0 0 0 0 0 0 0 0 0 0 0 0 0 0 0 0 0 0 0 0
0 0 0 0 0 0 0 0 0 0 0 0 0 0 0 0 0 0 0 0 0 0 0 0 0 0 0 0 0 0 0 0 0 0 0 0 0 0 0 0 0 0 0
0 0 0 0 0 0 0 0 0 0 0 0 0 0 0 0 0 0 0 0 0 0 0 0 0 0 0 0 0 0 0 0 0 0 0 0 0 0 0 0 0 0 0
0 0 0 0 0 0 0 0 0 0 0 0 0 0 0 0 0 0 0 0 0 0 0 0 0 0 0 0 0 0 0 0 0 0 0 0 0 0 0 0 0 0 0
0 0 0 0 0 0 0 0 0 0 0 0 0 0 0 0 0 0 0 0 0 0 0 0 0 0 0 0 0 0 0 0 0 0 0 0 0 0 0 0 0 0 0
0 0 0 0 0 0 0 0 0 0 0 0 0 0 0 0 0 0 0 0 0 0 0 0 0 0 0 0 0 0 0 0 0 0 0 0 0 0 0 0 0 0 0
0 0 0 0 0 0 0 0 0 0 0 0 0 0 0 0 0 0 0 0 0 0 0 0 0 0 0 0 0 0 0 0 0 0 0 0 0 0 0 0 0 0 0
0 0 0 0 0 0 0 0 0 0 0 0 0 0 0 0 0 0 0 0 0 0 0 0 0 0 0 0 0 0 0 0 0 0 0 0 0 0 0 0 0 0 0
0 0 0 0 0 0 0 0 0 0 0 0 0 0 0 0 0 0 0 0 0 0 0 0 0 0 0 0 0 0 0 0 0 0 0 0 0 0 0 0 0 0 0
0 0 0 0 0 0 0 0 0 0 0 0 0 0 0 0 0 0 0 0 0 0 0 0 0 0 0 0 0 0 0 0 0 0 0 0 0 0 0 0 0 0 0
0 0 0 0 0 0 0 0 0 0 0 0 0 0 0 0 0 0 0 0 0 0 0 0 0 0 0 0 0 0 0 0 0 0 0 0 0 0 0 0 0 0 0
0 0 0 0 0 0 0 0 0 0 0 0 0 0 0 0 0 0 0 0 0 0 0 0 0 0 0 0 0 0 0 0 0 0 0 0 0 0 0 0 0 0 0
0 0 0 0 0 0 0 0 0 0 0 0 0 0 0 0 0 0 0 0 0 0 0 0 0 0 0 0 0 0 0 0 0 0 0 0 0 0 0 0 0 0 0
0 0 0 0 0 0 0 0 0 0 0 0 0 0 0 0 0 0 0 0 0 0 0 0 0 0 0 0 0 0 0 0 0 0 0 0 0 0 0 0 0 0 0
0 0 0 0 0 0 0 0 0 0 0 0 0 0 0 0 0 0 0 0 0 0 0 0 0 0 0 0 0 0 0 0 0 0 0 0 0 0 0 0 0 0 0
0 0 0 0 0 0 0 0 0 0 0 0 0 0 0 0 0 0 0 0 0 0 0 0 0 0 0 0 0 0 0 0 0 0 0 0 0 0 0 0 0 0 0
0 0 0 0 0 0 0 0 0 0 0 0 0 0 0 0 0 0 0 0 0 0 0 0 0 0 0 0 0 0 0 0 0 0 0 0 0 0 0 0 0 0 0
0 0 0 0 0 0 0 0 0 0 0 0 0 0 0 0 0 0 0 0 0 0 0 0 0 0 0 0 0 0 0 0 0 0 0 0 0 0 0 0 0 0 0
0 0 0 0 0 0 0 0 0 0 0 0 0 0 0 0 0 0 0 0 0 0 0 0 0 0 0 0 0 0 0 0 0 0 0 0 0 0 0 0 0 0 0
0 0 0 0 0 0 0 0 0 0 0 0 0 0 0 0 0 0 0 0 0 0 0 0 0 0 0 0 0 0 0 0 0 0 0 0 0 0 0 0 0 0 0
0 0 0 0 0 0 0 0 0 0 0 0 0 0 0 0 0 0 0 0 0 0 0 0 0 0 0 0 0 0 0 0 0 0 0 0 0 0 0 0 0 0 0
0 0 0 0 0 0 0 0 0 0 0 0 0 0 0 0 0 0 0 0 0 0 0 0 0 0 0 0 0 0 0 0 0 0 0 0 0 0 0 0 0 0 0
0 0 0 0 0 0 0 0 0 0 0 0 0 0 0 0 0 0 0 0 0 0 0 0 0 0 0 0 0 0 0 0 0 0 0 0 0 0 0 0 0 0 0
Wind_Speed
11 12 13 14 16 17 18 17 7 5 8 8 6 2 1 2 3 3 2 3 3 4 4 3 4 3 2 2 2 3 3 3 4 4 3 2 3 4 4 2 2 1 2
13 13 14 15 16 16 17 16 6 2 6 7 7 5 4 4 3 3 4 5 4 4 4 4 5 4 4 2 1 1 2 3 4 4 3 2 3 4 4 4 2 1 2
14 14 14 15 16 16 16 13 6 4 4 4 5 6 6 6 5 6 8 7 7 8 8 8 7 7 7 6 6 5 3 2 0 2 2 2 1 2 3 4 4 4 5
14 14 15 15 15 15 14 12 8 4 2 3 4 6 7 7 7 8 8 7 8 8 8 7 7 7 7 6 6 7 5 4 4 2 1 1 2 3 4 3 3 3 3
14 14 14 15 14 13 12 12 10 7 4 4 6 7 8 8 8 8 7 7 7 7 7 6 7 10 12 8 6 6 6 5 4 3 3 2 3 3 3 2 2 2 2
13 13 14 15 14 13 12 11 9 10 11 10 9 8 8 8 14 15 9 6 6 6 5 4 4 6 8 9 9 8 7 5 4 3 3 3 3 4 3 2 2 2 2
13 13 14 15 12 12 14 14 13 12 12 12 11 10 9 11 16 14 12 6 6 6 7 7 6 6 7 5 5 3 4 5 5 3 3 5 5 6 4 4 3 2 2
11 12 14 15 13 12 13 12 10 9 8 8 8 7 7 10 14 13 10 6 5 6 7 7 7 6 6 7 6 4 2 3 4 4 4 3 3 3 3 3 3 3 4
9 10 10 11 12 12 11 11 8 6 5 5 5 6 5 8 13 12 10 4 5 5 7 7 7 6 10 11 8 6 6 7 7 9 8 6 5 4 2 2 3 3 2
9 8 8 9 9 9 8 7 6 5 4 3 3 4 6 6 10 12 11 6 6 4 3 6 9 8 10 10 7 7 8 7 7 7 8 8 6 8 12 7 5 3 2
10 8 8 8 9 9 8 7 7 6 5 4 4 3 4 6 8 11 12 6 6 4 4 5 6 10 9 9 9 6 6 5 5 5 4 4 5 6 7 6 5 3 2
10 9 9 9 9 9 8 7 7 8 7 6 5 4 4 4 5 6 8 6 5 4 4 4 4 8 8 7 5 6 7 7 4 4 4 4 5 4 4 4 4 3 2
13 10 8 9 9 8 7 7 7 7 7 7 7 6 5 5 6 10 8 8 5 1 2 2 4 6 6 5 6 7 7 5 3 3 3 3 3 3 3 3 4 3 4
13 12 9 7 8 9 8 5 5 5 5 7 7 7 6 6 5 5 5 6 8 3 1 1 1 3 3 4 5 5 4 3 3 2 2 2 3 3 2 2 3 3 3
11 11 11 9 7 6 8 8 7 3 5 5 4 4 6 5 9 15 9 4 2 2 2 1 0 1 1 2 2 3 3 3 3 3 3 3 3 3 3 3 3 3 3
11 11 9 8 8 7 6 7 14 14 17 15 11 9 7 10 15 15 14 8 4 4 3 2 1 1 1 1 2 2 2 2 2 2 2 3 3 3 4 3 3 3 4
12 11 8 9 9 8 8 7 7 10 15 16 17 16 13 13 14 14 13 6 4 3 2 2 2 1 1 1 1 1 1 1 1 2 2 3 3 4 4 4 4 3 4
10 11 11 7 7 6 6 6 6 7 7 6 11 16 16 16 16 16 15 7 3 3 1 1 1 1 1 1 1 1 1 1 1 2 2 3 3 4 5 5 5 5 6
9 7 5 5 6 6 6 6 5 6 6 6 5 8 14 15 15 16 14 5 4 3 2 2 2 1 1 1 2 2 2 2 2 3 3 4 4 4 5 5 6 10 9
7 16 14 7 5 6 6 5 5 5 5 5 5 5 6 7 4 6 6 4 4 4 3 3 2 2 2 2 2 2 3 3 3 3 4 4 4 4 5 6 6 7 7
6 9 16 9 6 5 6 5 5 4 4 5 4 8 13 5 4 4 4 4 3 4 4 4 3 3 2 2 2 3 4 4 4 4 4 4 4 5 5 6 7 8 8
5 6 6 6 6 6 7 5 5 5 5 6 4 7 13 4 3 3 3 3 3 3 3 4 3 3 3 3 3 3 4 4 4 4 5 5 5 5 5 6 7 8 9
6 7 8 7 7 12 10 6 6 6 6 6 5 5 5 4 3 4 4 4 4 4 4 4 4 4 4 4 4 4 4 5 5 6 6 6 7 7 7 8 10 11 11
7 8 9 9 9 8 8 8 8 8 8 7 6 6 6 5 5 5 5 4 4 4 4 4 4 5 7 5 4 4 5 7 7 7 10 10 11 11 10 10 11 13 13
8 9 10 10 10 10 10 10 10 10 10 10 9 7 6 5 5 5 5 4 5 5 5 5 4 5 6 7 6 6 13 19 19 14 11 11 14 14 13 14 13 13 13
11 13 13 12 12 12 12 12 12 12 11 11 10 8 7 6 5 5 5 4 4 4 5 4 5 6 7 7 9 14 19 21 23 23 12 7 7 8 9 9 12 11 11
Wind_Direction
353 342 329 321 318 316 313 305 270 156 134 131 128 137 115 78 58 49 29 13 345 314 303 293 288 288 281 247 217 207 210 192 201 233 239 235 173 154 146 153 146 151 331
346 336 330 326 323 321 316 312 310 105 116 125 132 143 132 99 75 70 64 53 41 26 18 25 11 5 2 345 320 241 225 213 197 218 240 236 206 173 137 119 95 41 25
340 337 337 335 329 322 320 318 335 27 78 101 126 135 124 111 96 81 79 72 64 58 51 47 35 38 34 25 27 21 4 2 10 208 236 238 188 107 101 83 66 43 25
341 342 341 338 334 329 328 332 340 1 66 105 115 112 109 104 94 84 80 78 74 65 56 48 41 41 43 41 39 22 14 25 26 31 15 18 65 54 78 80 62 44 27
343 346 345 341 337 335 334 337 343 358 41 80 94 91 90 86 85 88 82 83 80 72 57 46 43 42 47 53 56 39 30 32 32 31 33 38 52 49 65 64 66 31 7
345 346 347 345 344 348 353 356 6 25 36 45 60 76 82 85 84 80 79 75 80 77 65 46 60 52 40 41 47 51 50 51 45 35 26 33 45 43 47 55 51 39 329
347 348 351 348 352 5 10 16 27 35 38 37 38 46 53 67 71 66 63 61 65 60 50 31 21 42 44 16 6 35 79 81 75 69 38 34 41 25 17 28 32 19 288
347 350 353 354 2 11 14 15 23 32 36 37 35 36 42 49 58 56 52 51 70 73 68 45 22 33 27 15 349 347 70 83 77 58 59 43 28 14 360 353 333 318 298
343 345 348 354 359 6 10 10 12 24 35 39 36 23 29 37 41 45 40 35 62 71 85 74 47 26 24 23 9 13 41 34 46 38 21 357 342 336 354 8 355 354 333
336 338 342 349 350 355 360 1 358 5 20 38 36 23 36 28 32 40 37 42 46 45 73 88 59 39 24 24 28 38 40 18 5 6 3 359 19 37 45 47 40 36 12
339 345 347 352 349 352 351 352 352 354 358 4 0 9 49 44 30 37 46 49 24 14 45 71 49 30 18 22 43 39 17 12 357 356 354 14 38 44 41 35 30 36 17
342 350 350 351 351 355 349 351 354 356 356 356 0 13 33 39 44 29 28 38 34 21 54 58 26 17 10 21 36 15 22 36 27 16 22 31 34 29 15 1 356 357 338
344 346 349 350 349 346 346 356 356 2 4 359 4 13 12 11 6 12 9 2 352 9 105 79 29 22 16 6 360 26 49 48 32 25 31 30 19 360 351 350 353 348 325
344 344 343 349 351 350 348 355 359 0 4 359 360 1 358 357 357 359 351 340 337 336 182 156 32 25 24 7 22 34 37 25 28 21 27 17 355 343 347 351 337 326 319
343 342 342 344 344 349 349 344 347 346 346 352 352 350 346 340 329 332 340 337 359 52 48 359 56 86 50 30 31 32 27 20 25 28 22 356 337 335 336 334 324 324 319
343 340 340 343 344 349 346 347 353 355 356 0 355 349 340 333 332 338 340 354 18 7 6 336 347 69 62 45 29 17 5 356 24 21 351 328 328 326 317 312 316 320 310
341 339 345 346 346 349 348 347 345 350 356 356 352 348 348 344 342 336 334 338 321 334 357 349 4 19 26 14 337 319 316 344 2 328 317 315 311 308 307 305 302 298 295
339 342 349 341 339 340 339 339 340 343 343 342 343 343 344 346 343 340 341 352 343 349 326 281 256 253 242 234 268 304 314 319 308 298 294 290 290 293 297 295 292 288 293
336 331 335 329 330 331 328 326 329 334 334 330 325 332 342 343 344 344 350 357 339 331 324 318 306 289 264 241 242 247 251 257 262 266 268 269 268 270 278 284 286 290 294
326 335 341 333 321 319 316 317 318 315 315 315 318 320 323 336 340 336 339 334 339 333 325 314 300 284 273 254 248 248 252 254 259 258 257 257 256 257 266 275 279 281 281
309 318 332 330 306 299 296 293 292 294 295 299 303 319 334 346 327 319 325 334 341 339 333 327 320 309 294 274 259 256 254 251 251 254 256 254 253 255 256 260 266 272 278
300 301 302 300 298 295 291 284 284 282 282 287 288 310 327 329 300 302 306 308 298 290 287 287 283 276 266 255 255 258 256 254 253 253 251 248 247 252 256 261 265 266 269
297 300 300 296 292 297 301 285 279 276 275 276 278 289 297 285 276 279 278 276 273 272 271 267 268 266 260 252 250 251 254 257 256 251 251 255 256 257 256 259 261 262 264
295 294 293 292 290 283 280 277 274 273 272 269 267 266 264 259 256 266 265 263 264 266 266 263 260 260 265 264 257 256 255 262 260 254 250 254 259 261 259 257 257 258 259
294 292 291 287 285 282 278 276 273 271 270 271 267 263 255 250 248 251 252 251 259 263 269 273 266 265 268 270 271 267 280 285 284 279 262 258 259 258 256 254 254 255 252
300 298 296 293 289 285 282 279 276 273 269 267 263 254 249 247 246 248 247 246 250 258 266 271 272 275 277 276 276 284 292 294 294 296 295 281 279 273 265 259 256 254 251